Weather History for Chesapeake, VA

Change the Weather History Date:

Saturday, January 11, 2014

  Actual Average (KORF) Record (KORF)
Temperature  
Mean Temperature 64 °F 40 °F  
Max Temperature 71 °F 48 °F 75 °F (1974)
Min Temperature 57 °F 33 °F 7 °F (1982)
Degree Days  
Heating Degree Days 1 25  
Month to date heating degree days 270  
Since 1 July heating degree days 1449  
Cooling Degree Days 0 0  
Month to date cooling degree days 0  
Year to date cooling degree days 0  
Growing Degree Days 14 (Base 50)    
Moisture  
Dew Point 61 °F    
Average Humidity 93    
Maximum Humidity 100    
Minimum Humidity 82    
Precipitation  
Precipitation 1.58 in 0.12 in 1.27 in (2014)
Month to date precipitation 1.20  
Year to date precipitation 1.20  
Snow  
Snow 0.00 in 0.00 in 4.70 in (1955)
Month to date snowfall 0.8  
Since 1 July snowfall 2.0  
Snow Depth -    
Sea Level Pressure  
Sea Level Pressure 29.81 in    
Wind  
Wind Speed 9 mph (South)    
Max Wind Speed 23 mph    
Max Gust Speed 44 mph    
Visibility 9 miles    
Events Rain , Thunderstorm    
T = Trace of Precipitation, MM = Missing Value Source: NWS Daily Summary

Daily Weather History Graph

Daily Weather History Graph

Search for Another Location

Airport:

Trip Planner

Search our weather history database for the weather conditions in past years. The results will help you decide how hot, cold, wet, or windy it might be!

Date:

Astronomy

Jan. 11, 2014 Rise Set
Actual Time 7:17 AM EST 5:09 PM EST
Civil Twilight 6:49 AM EST 5:37 PM EST
Nautical Twilight 6:17 AM EST 6:09 PM EST
Astronomical Twilight 5:46 AM EST 6:40 PM EST
Moon 1:50 PM EST (1/11) 3:21 AM EST (1/11)
Length of Visible Light 10h 48m
Length of Day
9h 51m
Waxing Gibbous, 83% of the Moon is Illuminated
Jan 11
Waxing Gibbous
Jan 15
Full
Jan 24
Last Quarter
Jan 30
New
Feb 6
First Quarter

Hourly Weather History & Observations

Time (EST) Temp. Dew Point Humidity Pressure Visibility Wind Dir Wind Speed Gust Speed Precip Events Conditions
12:15 AM 59.0 °F 57.2 °F 94% 30.13 in 10.0 mi SE 3.5 mph - 0.01 in   Drizzle
12:35 AM 60.8 °F 57.2 °F 88% 30.11 in 10.0 mi SE 4.6 mph - 0.01 in   Mostly Cloudy
12:55 AM 60.8 °F 59.0 °F 94% 30.09 in 7.0 mi ESE 5.8 mph - 0.01 in Rain Light Rain
1:15 AM 60.8 °F 60.8 °F 100% 30.09 in 7.0 mi ESE 5.8 mph - 0.04 in Rain Rain
1:35 AM 62.6 °F 60.8 °F 94% 30.08 in 2.5 mi SE 5.8 mph - 0.24 in Rain Heavy Rain
1:55 AM 62.6 °F 62.6 °F 100% 30.07 in 10.0 mi SE 8.1 mph - 0.03 in Rain , Thunderstorm Rain
2:15 AM 64.4 °F 62.6 °F 94% 30.08 in 5.0 mi South 6.9 mph - 0.19 in Rain , Thunderstorm Heavy Thunderstorms and Rain
2:35 AM 64.4 °F 62.6 °F 94% 30.07 in 4.0 mi SE 11.5 mph - 0.50 in Rain , Thunderstorm Heavy Thunderstorms and Rain
2:55 AM 64.4 °F 62.6 °F 94% 30.06 in 10.0 mi SSE 8.1 mph - 0.02 in Rain , Thunderstorm Light Thunderstorms and Rain
3:15 AM 62.6 °F 62.6 °F 100% 30.06 in 2.0 mi Calm Calm - 0.24 in Rain Heavy Rain
3:35 AM 62.6 °F 62.6 °F 100% 30.05 in 7.0 mi SSE 4.6 mph - 0.39 in Rain Heavy Rain
3:55 AM 62.6 °F 62.6 °F 100% 30.04 in 7.0 mi SSE 4.6 mph - N/A   Light Drizzle
4:15 AM 62.6 °F 62.6 °F 100% 30.03 in 10.0 mi South 4.6 mph - N/A   Overcast
4:35 AM 62.6 °F 62.6 °F 100% 30.01 in 10.0 mi SSE 3.5 mph - N/A   Overcast
4:55 AM 62.6 °F 62.6 °F 100% 30.01 in 10.0 mi SSE 4.6 mph - N/A   Overcast
5:15 AM 62.6 °F 62.6 °F 100% 30.00 in 10.0 mi SSE 5.8 mph - N/A   Overcast
5:35 AM 62.6 °F 62.6 °F 100% 29.97 in 10.0 mi SE 5.8 mph - N/A   Mostly Cloudy
5:55 AM 62.6 °F 62.6 °F 100% 29.97 in 10.0 mi SSE 6.9 mph - N/A   Mostly Cloudy
6:15 AM 64.4 °F 62.6 °F 94% 29.96 in 10.0 mi SSE 6.9 mph - N/A   Overcast
6:35 AM 64.4 °F 62.6 °F 94% 29.95 in 10.0 mi SSE 8.1 mph - N/A   Overcast
6:55 AM 64.4 °F 62.6 °F 94% 29.95 in 10.0 mi South 8.1 mph - N/A   Overcast
7:15 AM 64.4 °F 64.4 °F 100% 29.94 in 7.0 mi South 9.2 mph - N/A   Overcast
7:35 AM 64.4 °F 64.4 °F 100% 29.94 in 7.0 mi South 12.7 mph 16.1 mph N/A   Overcast
7:55 AM 64.4 °F 64.4 °F 100% 29.93 in 7.0 mi South 11.5 mph 17.3 mph N/A   Overcast
8:15 AM 66.2 °F 64.4 °F 94% 29.93 in 7.0 mi South 12.7 mph 17.3 mph N/A   Overcast
8:35 AM 66.2 °F 64.4 °F 94% 29.91 in 5.0 mi South 16.1 mph 23.0 mph N/A   Overcast
8:55 AM 66.2 °F 64.4 °F 94% 29.90 in 7.0 mi South 12.7 mph 21.9 mph N/A   Overcast
9:15 AM 66.2 °F 64.4 °F 94% 29.89 in 7.0 mi South 13.8 mph 20.7 mph N/A   Overcast
9:35 AM 66.2 °F 64.4 °F 94% 29.88 in 7.0 mi South 12.7 mph 20.7 mph N/A   Overcast
9:55 AM 68.0 °F 64.4 °F 88% 29.87 in 7.0 mi South 11.5 mph - N/A   Overcast
10:15 AM 68.0 °F 66.2 °F 94% 29.87 in 5.0 mi South 17.3 mph 23.0 mph N/A   Overcast
10:35 AM 69.8 °F 66.2 °F 88% 29.86 in 10.0 mi South 16.1 mph 24.2 mph N/A   Overcast
10:55 AM 69.8 °F 66.2 °F 88% 29.85 in 10.0 mi South 16.1 mph 21.9 mph N/A   Overcast
11:15 AM 69.8 °F 66.2 °F 88% 29.84 in 10.0 mi South 13.8 mph 23.0 mph N/A   Overcast
11:35 AM 69.8 °F 66.2 °F 88% 29.83 in 10.0 mi South 12.7 mph 20.7 mph N/A   Overcast
11:55 AM 69.8 °F 66.2 °F 88% 29.80 in 10.0 mi South 13.8 mph 19.6 mph N/A   Overcast
12:15 PM 69.8 °F 66.2 °F 88% 29.77 in 10.0 mi South 15.0 mph 18.4 mph N/A   Overcast
12:35 PM 71.6 °F 66.2 °F 83% 29.75 in 10.0 mi South 15.0 mph 19.6 mph N/A Thunderstorm Overcast
12:55 PM 71.6 °F 66.2 °F 83% 29.72 in 10.0 mi South 19.6 mph 24.2 mph N/A Thunderstorm Mostly Cloudy
1:15 PM 71.6 °F 66.2 °F 83% 29.70 in 10.0 mi South 17.3 mph 27.6 mph N/A   Mostly Cloudy
1:35 PM 71.6 °F 66.2 °F 83% 29.69 in 10.0 mi South 19.6 mph 26.5 mph N/A   Overcast
1:55 PM 71.6 °F 66.2 °F 83% 29.67 in 10.0 mi South 17.3 mph 29.9 mph N/A Thunderstorm Overcast
2:15 PM 71.6 °F 66.2 °F 83% 29.65 in 10.0 mi South 15.0 mph 21.9 mph N/A Thunderstorm Overcast
2:35 PM 71.6 °F 66.2 °F 83% 29.65 in 10.0 mi South 13.8 mph 21.9 mph N/A   Mostly Cloudy
2:55 PM 71.6 °F 66.2 °F 83% 29.63 in 10.0 mi South 18.4 mph 24.2 mph N/A   Mostly Cloudy
3:15 PM 71.6 °F 66.2 °F 83% 29.62 in 10.0 mi South 23.0 mph 27.6 mph N/A   Mostly Cloudy
3:35 PM 71.6 °F 66.2 °F 83% 29.61 in 7.0 mi South 17.3 mph 23.0 mph N/A Rain Rain
3:55 PM 71.6 °F 66.2 °F 83% 29.63 in 10.0 mi South 17.3 mph 26.5 mph N/A Rain , Thunderstorm Light Thunderstorms and Rain
4:15 PM 62.6 °F 57.2 °F 82% 29.70 in 4.0 mi West 21.9 mph 43.7 mph 0.07 in Rain , Thunderstorm Heavy Thunderstorms and Rain
4:35 PM 57.2 °F 57.2 °F 100% 29.69 in 7.0 mi West 15.0 mph 25.3 mph 0.38 in Rain Light Rain
4:55 PM 57.2 °F 55.4 °F 94% 29.69 in 10.0 mi West 8.1 mph - 0.01 in Rain Rain
5:15 PM 57.2 °F 55.4 °F 94% 29.67 in 10.0 mi SW 3.5 mph - 0.02 in Rain Rain
5:35 PM 57.2 °F 55.4 °F 94% 29.68 in 10.0 mi South 6.9 mph - 0.03 in Rain Rain
5:55 PM 57.2 °F 55.4 °F 94% 29.68 in 10.0 mi SSW 3.5 mph - N/A Rain Light Rain
6:15 PM 57.2 °F 55.4 °F 94% 29.64 in 10.0 mi South 4.6 mph - 0.01 in   Drizzle
6:35 PM 57.2 °F 55.4 °F 94% 29.65 in 10.0 mi SSE 8.1 mph - 0.01 in   Overcast
6:55 PM 57.2 °F 55.4 °F 94% 29.64 in 10.0 mi SSE 10.4 mph - N/A Rain Light Rain
7:15 PM 57.2 °F 55.4 °F 94% 29.64 in 10.0 mi South 9.2 mph - N/A Rain Rain
7:35 PM 57.2 °F 55.4 °F 94% 29.63 in 10.0 mi SSE 11.5 mph 17.3 mph N/A Rain Light Rain
7:55 PM 57.2 °F 55.4 °F 94% 29.62 in 10.0 mi South 10.4 mph 16.1 mph N/A   Overcast
8:15 PM 57.2 °F 55.4 °F 94% 29.64 in 10.0 mi South 11.5 mph - 0.01 in Rain Light Rain
8:35 PM 57.2 °F 55.4 °F 94% 29.63 in 10.0 mi South 10.4 mph - 0.01 in   Drizzle
8:55 PM 57.2 °F 55.4 °F 94% 29.63 in 10.0 mi South 11.5 mph - N/A Rain Light Rain
9:15 PM 57.2 °F 55.4 °F 94% 29.53 in 10.0 mi ESE 10.4 mph - 0.01 in Rain Light Rain
9:35 PM 57.2 °F 55.4 °F 94% 29.57 in 10.0 mi South 8.1 mph - 0.01 in   Scattered Clouds
9:55 PM 57.2 °F 55.4 °F 94% 29.59 in 10.0 mi SSW 12.7 mph 17.3 mph N/A   Clear
10:15 PM 57.2 °F 55.4 °F 94% 29.60 in 10.0 mi SSW 9.2 mph - N/A   Clear
10:35 PM 57.2 °F 55.4 °F 94% 29.61 in 10.0 mi SW 8.1 mph - N/A   Mostly Cloudy
10:55 PM 57.2 °F 55.4 °F 94% 29.62 in 10.0 mi SW 11.5 mph 17.3 mph N/A   Overcast
11:15 PM 57.2 °F 55.4 °F 94% 29.63 in 7.0 mi SW 9.2 mph - N/A   Overcast
11:35 PM 57.2 °F 55.4 °F 94% 29.63 in 10.0 mi SW 8.1 mph - N/A   Overcast
11:55 PM 57.2 °F 55.4 °F 94% 29.62 in 10.0 mi SW 8.1 mph - N/A   Mostly Cloudy